Wind_Speed
4 4 4 4 4 4 6 7 8 8 8 7 7 7 7 7 7 7 7 7 7 7 7 7 7 7 7 7 8 6 7 7 7 7 8 8 8 8 8 8 8 8 8
4 4 5 4 4 4 5 6 6 6 7 6 6 7 7 7 7 8 8 8 8 7 7 7 7 7 7 8 7 7 8 8 8 8 8 9 9 9 9 9 9 9 9
4 4 5 5 4 5 5 5 5 6 7 7 6 7 8 8 8 7 7 7 8 8 7 7 7 7 7 7 7 8 8 9 9 10 10 10 10 9 9 9 9 9 10
5 4 4 4 3 4 5 5 6 7 7 7 7 8 8 9 8 8 8 8 8 7 7 7 7 7 7 7 7 8 8 9 9 9 10 10 9 9 9 9 9 9 9
5 5 5 5 4 4 5 5 6 7 8 8 8 9 9 9 9 9 8 8 8 8 7 7 7 7 8 8 7 8 8 8 9 9 9 10 10 9 9 9 10 10 10
6 5 5 4 5 5 5 6 6 7 7 8 9 9 9 9 9 10 10 9 8 8 8 7 8 7 7 8 8 8 9 9 9 10 10 10 11 11 11 10 11 11 11
6 6 6 6 5 5 6 6 7 7 7 8 8 8 9 9 9 10 10 9 9 9 8 9 8 8 8 9 9 8 9 10 10 10 11 11 11 11 11 11 12 12 12
7 7 6 7 6 6 7 7 7 7 8 8 9 9 9 10 10 10 11 11 11 11 10 10 9 9 10 10 10 9 9 10 10 11 11 12 12 12 12 12 13 12 12
8 8 7 7 7 7 7 8 7 8 8 9 9 10 10 10 10 10 11 12 12 11 11 10 11 11 11 11 11 11 11 11 11 11 12 13 13 13 13 14 14 13 13
9 9 9 9 8 8 8 8 8 8 9 9 10 11 11 11 11 11 12 12 12 12 12 12 12 12 12 12 12 12 12 12 13 13 13 14 14 14 14 15 15 14 13
10 10 10 10 10 10 10 9 9 9 9 10 10 11 11 12 12 11 12 13 13 13 13 13 13 13 13 14 13 14 15 15 15 15 15 15 16 16 16 16 15 15 14
11 11 11 11 11 11 11 10 10 10 11 11 11 11 11 13 13 13 13 14 15 15 15 15 14 14 14 14 14 15 15 16 16 16 16 16 17 17 17 17 16 15 15
12 13 13 13 12 12 12 11 11 12 12 12 12 13 13 13 13 13 13 14 15 15 16 15 16 16 15 15 16 16 16 16 17 17 17 17 18 18 19 19 18 18 18
13 14 14 14 13 13 13 13 13 13 13 13 13 14 15 14 14 14 14 15 15 16 17 17 18 18 18 17 17 17 17 17 18 18 18 19 19 20 20 20 20 20 20
15 15 15 14 14 14 14 14 14 14 14 14 14 15 15 16 16 17 17 17 17 17 18 19 19 19 19 19 18 19 19 20 19 19 19 20 20 20 20 20 21 20 21
16 16 15 16 15 15 15 16 16 16 15 15 16 16 17 17 18 18 18 19 20 19 19 19 20 20 21 21 21 21 21 21 21 21 21 21 21 21 21 21 21 21 20
18 17 17 17 16 16 16 16 17 17 17 17 18 18 18 19 19 20 20 21 21 21 21 20 21 21 21 22 22 22 22 22 22 22 22 22 22 22 22 22 22 22 22
18 18 18 17 17 17 18 18 18 19 19 19 19 19 19 20 20 21 21 21 22 22 22 22 22 23 23 23 24 24 23 23 23 23 23 23 23 24 23 23 24 24 24
19 19 18 18 18 19 19 19 20 20 21 21 21 21 22 22 22 23 23 23 23 23 23 24 24 24 25 25 25 25 25 25 25 24 24 24 25 25 24 24 25 25 25
20 21 21 21 21 21 21 22 22 22 23 23 23 23 24 24 24 24 25 25 25 25 26 26 25 26 26 26 26 26 26 26 26 25 25 26 26 26 26 26 27 26 26
22 23 23 23 23 23 23 24 24 24 24 24 25 26 26 26 26 26 26 27 27 27 27 27 27 27 27 27 27 26 26 27 27 27 27 27 27 28 28 28 28 28 28
23 24 24 24 24 24 25 25 25 26 26 25 26 26 27 27 27 28 28 28 28 28 28 28 28 28 28 28 28 27 27 27 27 27 28 28 28 29 29 29 28 28 28
25 25 25 25 25 26 26 26 26 27 27 27 27 27 27 27 28 29 29 29 29 29 30 30 30 30 30 30 30 29 29 29 28 28 29 28 28 27 28 29 29 29 30
27 27 27 27 27 27 27 28 27 27 27 27 28 28 28 29 29 29 30 29 29 29 30 31 31 30 30 31 31 30 30 30 29 29 29 29 29 28 28 28 28 30 30
28 28 28 27 27 27 28 28 27 27 27 28 28 29 29 30 30 30 31 31 30 30 30 31 31 31 31 31 31 31 30 30 30 29 29 29 29 29 29 28 29 29 29
28 28 28 28 28 28 27 27 26 26 27 27 28 29 29 29 29 30 31 31 31 31 31 30 30 31 30 30 30 31 31 31 31 30 30 30 30 30 30 29 29 29 29
Wind_Direction
302 295 278 275 263 251 241 240 231 232 236 239 248 253 261 271 273 277 276 278 280 283 277 274 276 277 280 280 282 284 286 285 277 275 277 278 282 287 286 285 282 287 288
307 298 299 292 272 261 246 238 232 239 239 245 251 255 263 270 272 275 276 277 277 277 277 279 278 279 279 282 287 287 286 283 277 276 277 279 281 284 286 289 285 283 286
317 311 296 299 274 258 246 240 237 250 251 250 255 259 263 268 268 273 278 277 274 273 275 277 279 277 282 289 291 290 289 286 280 279 277 277 281 284 284 287 290 288 286
316 316 302 300 281 262 253 247 248 256 258 256 259 262 260 261 266 270 274 276 273 269 272 280 284 281 279 286 291 292 294 291 287 287 283 281 282 284 285 288 292 292 290
319 317 311 306 294 276 267 266 260 260 261 258 260 261 259 259 264 267 271 275 272 267 269 273 278 284 281 279 288 291 290 292 291 288 286 288 288 289 288 288 291 291 290
324 323 319 311 298 285 279 276 275 269 267 264 262 260 261 262 266 266 268 273 268 265 269 274 279 283 282 279 285 290 289 287 287 285 285 287 287 287 288 288 287 290 289
323 326 325 317 304 293 287 282 277 277 273 269 268 265 264 263 262 262 265 271 269 270 271 273 279 280 285 286 287 290 290 290 285 285 288 290 290 290 289 290 292 290 287
321 321 320 314 307 298 287 282 278 273 275 274 269 266 266 265 261 264 267 267 267 267 267 270 273 278 283 282 286 286 287 287 286 288 290 292 290 289 289 292 293 290 287
319 319 314 304 300 301 295 287 282 277 275 276 277 271 266 271 267 267 266 264 264 268 271 273 274 276 280 281 284 287 288 286 289 289 288 288 290 289 288 290 289 289 289
318 316 314 309 309 306 302 296 289 285 283 280 278 276 274 274 270 270 268 266 268 272 271 271 273 273 278 280 284 287 287 287 287 287 287 287 288 288 287 287 285 285 286
313 311 312 311 309 308 304 299 295 291 287 283 282 279 277 274 272 272 271 272 273 275 272 272 273 274 274 277 283 285 284 287 288 287 286 285 286 285 285 284 280 281 282
309 308 307 306 303 302 300 298 295 294 287 286 286 285 280 278 276 274 274 275 274 275 276 274 273 273 275 278 283 284 284 286 287 287 285 283 283 283 283 282 280 280 281
309 309 308 306 302 299 297 295 291 289 288 287 287 286 284 282 279 280 281 279 277 278 278 276 275 275 276 278 281 282 282 283 285 285 285 284 283 282 282 281 281 280 280
310 309 309 306 302 298 295 293 290 290 289 286 286 286 287 286 283 283 283 279 277 278 278 276 275 275 274 276 277 278 281 282 284 286 284 283 282 282 282 280 280 280 280
309 307 306 304 301 297 293 290 290 291 291 290 287 285 285 285 282 282 281 281 282 281 280 277 274 274 272 274 276 279 280 281 282 284 284 283 282 281 281 282 281 280 280
307 307 303 302 298 296 294 290 287 287 287 287 287 286 284 281 282 281 281 282 282 283 281 279 277 276 273 274 277 280 281 281 281 282 282 282 281 281 282 283 283 280 280
304 302 303 300 295 293 294 293 289 288 286 286 286 286 283 281 282 282 283 283 283 282 279 278 278 278 278 277 278 279 279 281 281 283 283 281 280 282 283 283 282 281 280
306 300 298 297 294 292 292 291 290 289 288 289 288 287 287 285 283 282 283 284 283 281 280 280 280 280 279 279 280 280 280 282 281 282 283 282 281 281 282 281 282 281 281
306 301 297 295 296 295 295 290 287 286 287 288 288 287 288 288 285 283 283 284 284 282 281 280 281 280 280 280 280 280 280 281 281 280 281 282 281 280 280 281 282 282 280
304 302 298 294 292 293 293 292 289 285 285 285 286 287 287 288 287 284 284 283 283 282 282 281 280 280 280 280 280 280 280 280 280 279 279 280 280 279 280 280 280 280 281
302 302 300 296 294 293 291 290 290 289 287 287 286 286 286 287 287 286 285 283 282 282 282 281 281 281 280 279 280 281 281 280 280 280 280 281 280 279 279 279 279 279 279
300 300 299 297 294 293 292 290 289 288 288 288 287 287 285 286 288 287 285 283 282 282 282 282 282 282 281 280 280 280 282 281 281 281 282 283 281 279 279 279 279 279 280
300 298 298 297 296 294 292 292 290 287 286 286 287 288 287 287 287 289 285 283 283 283 283 283 283 282 281 280 280 280 281 282 282 281 281 282 283 281 280 279 278 279 279
299 299 298 297 296 296 296 295 292 289 286 285 284 285 287 287 287 288 289 286 285 285 283 282 281 280 280 279 279 279 280 281 282 281 282 282 284 284 281 279 277 277 278
299 298 298 298 297 297 298 296 292 290 288 287 286 285 286 286 288 289 289 289 287 287 285 284 282 280 278 278 278 278 279 279 279 280 281 281 282 282 281 279 279 280 279
298 298 297 297 298 300 299 295 293 292 291 290 289 289 288 287 288 289 288 287 288 288 286 284 283 281 279 278 278 278 279 279 279 278 278 279 280 280 279 279 278 279 279
Height
5880 5879 5879 5880 5880 5880 5881 5882 5884 5885 5886 5887 5888 5889 5890 5891 5891 5892 5893 5893 5893 5894 5894 5894 5894 5894 5894 5894 5894 5894 5894 5894 5894 5894 5894 5894 5894 5893 5893 5893 5893 5893 5892
5880 5879 5879 5879 5879 5880 5880 5881 5883 5884 5885 5886 5887 5888 5889 5889 5890 5891 5891 5891 5892 5892 5892 5892 5892 5892 5892 5892 5892 5892 5892 5892 5892 5892 5892 5892 5892 5892 5891 5891 5891 5891 5890
5880 5879 5879 5878 5878 5879 5880 5880 5882 5883 5884 5885 5886 5887 5887 5888 5889 5889 5889 5890 5890 5890 5890 5891 5891 5891 5891 5891 5891 5890 5890 5890 5890 5890 5890 5890 5890 5889 5889 5889 5888 5888 5888
5880 5879 5879 5879 5879 5879 5879 5880 5881 5882 5883 5884 5884 5885 5886 5886 5887 5887 5888 5888 5888 5888 5889 5889 5889 5889 5889 5889 5889 5889 5889 5888 5888 5888 5888 5888 5888 5887 5887 5886 5886 5886 5886
5880 5879 5879 5879 5879 5879 5879 5879 5880 5881 5881 5882 5883 5883 5884 5884 5885 5885 5886 5886 5886 5887 5887 5887 5887 5888 5888 5888 5887 5887 5887 5886 5886 5886 5885 5885 5885 5885 5885 5884 5884 5884 5883
5879 5879 5879 5879 5878 5878 5878 5878 5879 5879 5879 5880 5880 5881 5881 5882 5882 5883 5883 5884 5884 5884 5885 5885 5885 5886 5885 5885 5885 5885 5885 5884 5884 5884 5883 5883 5883 5883 5882 5882 5882 5881 5880
5879 5878 5878 5878 5878 5877 5877 5877 5877 5878 5878 5878 5878 5878 5879 5879 5880 5880 5881 5882 5882 5882 5883 5883 5883 5883 5883 5883 5883 5883 5882 5882 5881 5881 5881 5881 5880 5880 5880 5879 5879 5878 5878
5878 5878 5877 5877 5876 5876 5876 5876 5876 5876 5876 5876 5876 5876 5877 5877 5877 5878 5879 5880 5880 5880 5881 5881 5881 5881 5881 5880 5880 5880 5880 5879 5879 5879 5878 5878 5877 5877 5877 5876 5876 5875 5875
5878 5877 5877 5876 5875 5875 5874 5874 5874 5875 5874 5874 5874 5875 5875 5875 5875 5876 5876 5876 5877 5877 5878 5878 5878 5878 5878 5878 5878 5877 5877 5876 5876 5876 5875 5875 5874 5874 5873 5873 5872 5872 5872
5877 5876 5875 5875 5874 5874 5873 5873 5872 5872 5872 5872 5872 5872 5873 5873 5873 5873 5873 5873 5874 5874 5874 5875 5875 5875 5875 5875 5875 5874 5874 5873 5873 5872 5872 5871 5871 5870 5870 5869 5869 5869 5868
5876 5875 5874 5873 5873 5872 5871 5871 5870 5870 5870 5870 5870 5870 5870 5870 5870 5870 5871 5871 5871 5871 5871 5871 5871 5871 5872 5872 5871 5871 5870 5870 5869 5869 5868 5868 5867 5867 5866 5866 5865 5865 5864
5874 5874 5873 5872 5871 5870 5870 5869 5868 5868 5868 5867 5867 5867 5867 5867 5867 5867 5867 5867 5868 5868 5867 5867 5867 5868 5868 5868 5867 5867 5867 5866 5865 5865 5864 5864 5863 5863 5862 5862 5861 5861 5860
5872 5872 5871 5870 5869 5868 5867 5867 5866 5866 5865 5865 5864 5864 5864 5864 5864 5864 5864 5864 5864 5864 5864 5863 5863 5864 5864 5863 5862 5862 5862 5862 5861 5860 5860 5859 5859 5858 5858 5857 5857 5856 5856
5870 5869 5868 5867 5866 5866 5865 5864 5864 5863 5863 5862 5861 5861 5860 5860 5860 5860 5860 5860 5860 5860 5860 5859 5859 5859 5858 5858 5858 5857 5857 5857 5856 5856 5855 5854 5854 5853 5852 5852 5852 5851 5851
5868 5867 5866 5864 5863 5863 5862 5861 5861 5860 5860 5859 5858 5857 5856 5856 5856 5856 5855 5855 5855 5855 5855 5854 5854 5854 5853 5853 5853 5853 5852 5852 5851 5850 5849 5849 5848 5848 5847 5846 5846 5845 5845
5864 5863 5862 5861 5860 5859 5858 5858 5857 5857 5856 5855 5855 5854 5853 5852 5851 5851 5851 5850 5849 5849 5849 5849 5849 5848 5848 5848 5848 5847 5847 5846 5845 5845 5844 5843 5843 5842 5841 5840 5840 5839 5838
5861 5860 5859 5857 5856 5855 5855 5854 5853 5853 5852 5851 5850 5849 5848 5848 5847 5846 5845 5845 5844 5843 5843 5844 5843 5843 5842 5842 5842 5841 5841 5840 5840 5839 5838 5837 5837 5836 5835 5834 5833 5833 5832
5857 5856 5855 5853 5852 5852 5851 5850 5849 5848 5847 5847 5846 5845 5844 5843 5842 5841 5840 5839 5838 5838 5838 5837 5837 5836 5836 5836 5835 5835 5834 5834 5833 5833 5832 5831 5830 5829 5829 5828 5827 5826 5826
5853 5852 5850 5849 5848 5847 5846 5845 5844 5843 5843 5842 5841 5840 5839 5837 5836 5835 5834 5833 5832 5832 5831 5831 5830 5829 5829 5828 5828 5827 5827 5827 5826 5826 5825 5824 5824 5823 5822 5821 5820 5819 5819
5849 5847 5846 5844 5843 5842 5841 5840 5839 5838 5837 5836 5835 5834 5833 5832 5830 5829 5828 5827 5826 5825 5824 5824 5823 5822 5822 5821 5820 5820 5820 5819 5818 5818 5818 5817 5816 5815 5815 5814 5813 5813 5812
5844 5842 5840 5839 5837 5836 5835 5833 5832 5831 5830 5829 5828 5827 5826 5825 5824 5822 5821 5820 5819 5818 5817 5816 5815 5815 5814 5813 5813 5812 5812 5811 5810 5810 5809 5809 5808 5807 5807 5806 5805 5804 5804
5838 5837 5835 5833 5831 5829 5828 5827 5825 5824 5823 5822 5821 5819 5818 5817 5816 5815 5813 5812 5811 5810 5809 5808 5807 5807 5806 5805 5804 5803 5803 5803 5803 5802 5801 5800 5799 5799 5798 5797 5796 5796 5795
5832 5831 5828 5826 5824 5823 5821 5819 5817 5816 5815 5815 5813 5812 5811 5810 5808 5807 5805 5804 5803 5801 5801 5800 5799 5798 5797 5797 5796 5795 5794 5794 5794 5793 5792 5791 5790 5790 5789 5788 5787 5786 5785
5826 5824 5822 5819 5817 5816 5814 5812 5810 5808 5807 5806 5805 5804 5803 5802 5800 5799 5797 5795 5794 5793 5792 5791 5790 5789 5788 5788 5787 5787 5786 5785 5784 5783 5783 5782 5782 5781 5780 5779 5778 5777 5776
5819 5817 5815 5813 5811 5808 5806 5804 5802 5800 5799 5798 5797 5796 5795 5793 5792 5790 5789 5787 5786 5784 5782 5781 5780 5779 5779 5778 5778 5777 5777 5776 5776 5775 5774 5773 5773 5772 5771 5770 5769 5767 5766
5812 5810 5808 5806 5803 5801 5799 5796 5794 5793 5792 5790 5789 5788 5786 5785 5783 5781 5780 5778 5777 5775 5773 5772 5771 5770 5769 5768 5768 5768 5767 5767 5766 5766 5765 5764 5763 5762 5761 5760 5759 5758 5757